Home   Weather   Mosjøen   Past weeks

Flag for Norway Past Weather in Mosjøen, Norway — Yesterday and Last 2 Weeks

Now
39 °F

Chilly.


Feels Like: 39 °F
Forecast: 21 / 36 °F
Wind: 2 mph from East

Location: Mosjoen Kjaerstad

Current Time: Apr 25, 2017 at 8:31:47 pm

Latest Report: Apr 25, 2017 at 8:00 pm


Visibility: N/A

Pressure: 29.74 "Hg

Humidity: 41%

Dew Point: 18 °F

Location of MosjøenLocation

Past Weather in Mosjøen — Graph

°F

Mosjøen Temperature Yesterday

Maximum temperature yesterday: 42 °F (at 4:00 pm)
Minimum temperature yesterday: 29 °F (at 6:00 am)
Average temperature yesterday: 35 °F

High & Low Weather Summary for the Past Weeks

 TemperatureHumidityPressure
High44 °F (Apr 21, 2:00 pm)95% (Apr 23, 5:00 am)30.48 "Hg (Apr 23, 5:00 am)
Low16 °F (Apr 17, 6:00 am)30% (Apr 16, 5:00 pm)29.18 "Hg (Apr 21, 9:00 am)
Average33 °F66%29.80 "Hg
* Reported Apr 10 7:00 pm — Apr 25 7:00 pm, Mosjøen, Weather by CustomWeather, © 2017

Note: Actual official high and low records may vary slightly from our data, if they occured in-between our weather recording intervals... More about our weather records

Advertising

Mosjøen Weather History for the Previous 24 Hours

Scroll right to see more
 ConditionsComfort  
Time TempWeatherWind HumidityBarometerVisibility
7:00 pm
Tue, Apr 25
43 °FQuite cool.1 mph34%29.74 "HgN/A
6:00 pm41 °FQuite cool.3 mph32%29.75 "HgN/A
5:00 pm43 °FQuite cool.3 mph32%29.74 "HgN/A
4:00 pm43 °FQuite cool.3 mph33%29.75 "HgN/A
3:00 pm42 °FQuite cool.3 mph37%29.75 "HgN/A
2:00 pm42 °FQuite cool.5 mph39%29.76 "HgN/A
1:00 pm42 °FQuite cool.3 mph39%29.76 "HgN/A
12:00 pm42 °FQuite cool.3 mph43%29.76 "HgN/A
11:00 am40 °FQuite cool.5 mph43%29.77 "HgN/A
10:00 am40 °FChilly.1 mph48%29.77 "HgN/A
9:00 am36 °FChilly.1 mph67%29.77 "HgN/A
8:00 am32 °FChilly.1 mph76%29.77 "HgN/A
7:00 am28 °FChilly.1 mph86%29.77 "HgN/A
6:00 am24 °FCold.1 mph89%29.77 "HgN/A
5:00 am24 °FCold.1 mph88%29.76 "HgN/A
4:00 am24 °FCold.1 mph90%29.76 "HgN/A
3:00 am25 °FChilly.1 mph88%29.75 "HgN/A
2:00 am26 °FChilly.No wind87%29.75 "HgN/A
1:00 am28 °FChilly.1 mph88%29.75 "HgN/A
12:00 am28 °FChilly.1 mph86%29.75 "HgN/A
11:00 pm
Mon, Apr 24
30 °FChilly.1 mph83%29.73 "HgN/A
8:00 pm37 °FChilly.2 mph66%29.70 "HgN/A
Weather by CustomWeather, © 2017

See weather overviewHow to use our weather pages